Retour au catalogue

CZ-6A DEB

ActifSSO
NORAD 56619·DEBRIS·🇨🇳 China

Lancé Nov 11, 2022 depuis Taiyuan Satellite Launch Center

Loading…

Prochains Passages (prochaines 24 heures)

TLE

VieillissantSource: Space-Track

Époque: Sep 4, 2026, 19:18 UTC

1 56619U 22151AET 26247.80468730  .00000106  00000-0  55421-4 0  9993
2 56619  98.5720 248.4456 0075253 168.7081 191.5812 14.30554299175930

Suivez CZ-6A DEB en temps réel avec AllMySat

Download on the App Store